This demonstration page uses our WeatherBlox Daily Observations layout. Learn more.

Left ArrowRight Arrow

Hourly Observations for April 21, 2015

Temp ( °F °C ) Dew Point ( °F °C ) Humidity (%) Winds ( mph kmh ) Pressure ( in mb ) Visibility ( mi km ) Precip ( " mm )
12:53 am 00:53 Cloudy 41 5 29 -1.7 62 62 WSW 6 9 29.88 1012 10 16 0.00 0.00
1:53 am 01:53 Cloudy 40 4.4 31 -0.6 70 70 W 5 7 29.89 1012 10 16 0.00 0.00
2:53 am 02:53 Clear 38 3.3 29 -1.7 70 70 WNW 8 13 29.89 1012 10 16 0.00 0.00
3:53 am 03:53 Mostly Cloudy 37 2.8 29 -1.7 73 73 WNW 8 13 29.89 1012 10 16 0.00 0.00
4:53 am 04:53 Clear 36 2.2 28 -2.2 73 73 W 6 9 29.88 1012 10 16 0.00 0.00
5:53 am 05:53 Clear 36 2.2 28 -2.2 73 73 WSW 7 11 29.88 1012 10 16 0.00 0.00
6:53 am 06:53 Sunny 36 2.2 27 -2.8 70 70 W 6 9 29.88 1012 10 16 0.00 0.00
7:53 am 07:53 Sunny 37 2.8 29 -1.7 73 73 W 8 13 29.88 1012 10 16 0.00 0.00
8:53 am 08:53 Sunny 45 7.2 31 -0.6 58 58 W 9 15 29.88 1012 10 16 0.00 0.00
9:53 am 09:53 Sunny 51 10.6 29 -1.7 43 43 WNW 10 17 29.87 1012 10 16 0.00 0.00
10:53 am 10:53 Sunny 56 13.3 28 -2.2 34 34 W 13 20 29.86 1011 10 16 0.00 0.00
11:53 am 11:53 Sunny 60 15.6 29 -1.7 31 31 W 16 26 29.85 1011 10 16 0.00 0.00
12:53 pm 12:53 Sunny 63 17.2 28 -2.2 27 27 NW 15 24 29.82 1010 10 16 0.00 0.00
1:53 pm 13:53 Sunny 66 18.9 27 -2.8 23 23 W 21 33 29.79 1009 10 16 0.00 0.00
2:53 pm 14:53 Mostly Sunny 69 20.6 28 -2.2 22 22 W 25 41 29.76 1008 10 16 0.00 0.00
3:53 pm 15:53 Mostly Cloudy 68 20 28 -2.2 22 22 W 17 28 29.74 1007 10 16 0.00 0.00
4:53 pm 16:53 Mostly Cloudy 67 19.4 30 -1.1 25 25 NW 23 37 29.74 1007 10 16 0.00 0.00
5:53 pm 17:53 Cloudy 66 18.9 30 -1.1 26 26 NW 14 22 29.77 1008 10 16 0.00 0.03
6:13 pm 18:13 Cloudy 63 17.2 32 0 31 31 NNE 22 35 29.74 1007 10 16 0.00 0.00
6:53 pm 18:53 Mostly Sunny 57 13.9 30 -1.1 36 36 NNE 23 37 29.84 1011 10 16 0.00 0.00
7:53 pm 19:53 Sunny 52 11.1 30 -1.1 43 43 NE 17 28 29.87 1012 10 16 0.00 0.00
8:53 pm 20:53 Mostly Clear 49 9.4 31 -0.6 50 50 NNE 13 20 29.91 1013 10 16 0.00 0.00
9:53 pm 21:53 Clear 45 7.2 32 0 61 61 NNE 12 19 29.95 1014 10 16 0.00 0.00
10:53 pm 22:53 Clear 43 6.1 30 -1.1 60 60 NNE 10 17 29.96 1015 10 16 0.00 0.00
11:53 pm 23:53 Clear 41 5 28 -2.2 60 60 NNE 5 7 29.98 1015 10 16 0.00 0.00

Powered by AerisWeather